• MPC Preparation (Info)

  • MPEC 2013-P38 : 2013 PH10

    The following Minor Planet Electronic Circular may be linked-to from your own Web pages, but must not otherwise be redistributed electronically.

    A form allowing access to any MPEC is at the bottom of this page.


    Read MPEC 2013-P37 Read MPEC 2013-P39


    M.P.E.C. 2013-P38                                Issued 2013 Aug. 6, 21:57 UT
    
         The Minor Planet Electronic Circulars contain information on unusual
             minor planets and routine data on comets.  They are published
       on behalf of Commission 20 of the International Astronomical Union by the
              Minor Planet Center, Smithsonian Astrophysical Observatory,
                              Cambridge, MA 02138, U.S.A.
    
                 Prepared using the Tamkin Foundation Computer Network
    
                                  MPC@CFA.HARVARD.EDU
                URL https://www.minorplanetcenter.net/    ISSN 1523-6714
    
                                       2013 PH10
    
    Observations:
         K13P10H* C2013 08 03.39769 20 12 28.314-11 08 19.23         20.5 wLEP038F51
         K13P10H  C2013 08 03.41314 20 12 28.535-11 08 21.38         20.6 wLEP038F51
         K13P10H  C2013 08 03.42795 20 12 28.748-11 08 23.25         20.7 wLEP038F51
         K13P10H  C2013 08 03.44277 20 12 28.961-11 08 25.02         20.5 wLEP038F51
         K13P10H _C2013 08 04.41220920 13 05.849-11 10 38.47         20.2 RtEP038568
         K13P10H _C2013 08 04.41346320 13 05.869-11 10 38.64         20.3 RtEP038568
         K13P10H KC2013 08 05.18123820 13 36.39 -11 12 47.3          20.3  rEP038H21
         K13P10H KC2013 08 05.19211220 13 36.59 -11 12 49.1          20.3  rEP038H21
         K13P10H KC2013 08 05.20303220 13 36.82 -11 12 51.3          20.4  rEP038H21
         K13P10H  C2013 08 05.30754920 13 38.15 -11 12 02.9          20.8  qEP038W85
         K13P10H  C2013 08 05.31120920 13 38.24 -11 12 03.4          20.8  qEP038W85
         K13P10H  C2013 08 05.31485320 13 38.35 -11 12 03.6          21.0  qEP038W85
         K13P10H  C2013 08 05.31849520 13 38.45 -11 12 04.1          21.2  qEP038W85
         K13P10H  C2013 08 05.32214120 13 38.54 -11 12 04.6          20.8  qEP038W85
         K13P10H HC2013 08 05.88138 20 14 04.55 -11 14 41.5          21.1 RtEP038204
         K13P10H HC2013 08 05.91337 20 14 05.44 -11 14 47.6                tEP038204
         K13P10H KC2013 08 05.95944 20 14 06.87 -11 14 59.1                qEP038J95
         K13P10H IC2013 08 05.97454 20 14 07.29 -11 15 01.1          20.6 RqEP038J95
    
    Observer details:
    204 Schiaparelli Observatory.  Observer L. Buzzi.  0.60-m f/4.64 reflector
        + CCD.
    568 Mauna Kea.  Observers R. J. Wainscoat, M. Micheli, D. Woodworth.
        Measurers M. Micheli, R. J. Wainscoat.  3.6-m Canada-France-Hawaii
        Telescope + CCD.
    F51 Pan-STARRS 1, Haleakala.  Observers N. Primak, A. Schultz, T. Goggia,
        M. Willman.  Measurer PS1 Science Consortium.  1.8-m Ritchey-Chretien
        + CCD.
    H21 Astronomical Research Observatory, Westfield.  Observer R. Holmes.
        Measurers S. Foglia, L. Buzzi, H. Devore, A. Kostin, T. Linder, T. Lister.
        0.81-m f/4.0 astrograph + CCD.
    J95 Great Shefford.  Observer P. Birtwhistle.  0.40-m f/6.0 Schmidt-Cassegrain
        + CCD.
    W85 Cerro Tololo-LCOGT A.  Observer T. Lister.  1.0-m f/8 Ritchey-Chretien
        + CCD.
    
    Orbital elements:
    2013 PH10                                                Earth MOID = 0.1542 AU
    Epoch 2013 Apr. 18.0 TT = JDT 2456400.5                 MPC
    M 297.68683              (2000.0)            P               Q
    n   0.58376395     Peri.  109.04228     +0.63456285     +0.77283608
    a   1.4178965      Node   200.35077     -0.71683085     +0.58495695
    e   0.1767198      Incl.    1.21514     -0.28893516     +0.24606861
    P   1.69           H   23.4           G   0.15           U   7
    Residuals in seconds of arc
    130803 F51  0.1-  0.0     130805 H21  0.3+  0.7+    130805 W85  0.0   0.0
    130803 F51  0.1-  0.1-    130805 H21  0.1-  0.6+    130805 W85  0.1-  0.1-
    130803 F51  0.0   0.1-    130805 H21  0.1-  0.2+    130805 204  0.5-  1.0+
    130803 F51  0.0   0.1-    130805 W85  0.1-  0.0     130805 204  1.2+  0.6+
    130804 568  0.1-  0.0     130805 W85  0.2-  0.1-    130805 J95  0.4-  0.5-
    130804 568  0.1-  0.0     130805 W85  0.0   0.1+    130805 J95  0.1+  0.0
    
    Ephemeris:
    2013 PH10                a,e,i = 1.42, 0.18, 1                   q = 1.1673
    Date    TT    R. A. (2000) Decl.     Delta      r     Elong.  Phase     V
    2013 07 07    19 58 20.4 -12 03 19   0.1702  1.1808   163.4    14.2    20.7
    ...
    2013 07 22    20 05 58.1 -11 02 45   0.1557  1.1699   170.7     8.0    20.3
    ...
    2013 07 30    20 09 57.2 -11 00 43   0.1544  1.1676   170.0     8.7    20.3
    ...
    2013 08 05    20 13 28.6 -11 11 37   0.1562  1.1674   167.3    11.0    20.4
    2013 08 06    20 14 08.3 -11 14 15   0.1568  1.1675   166.7    11.5    20.4
    2013 08 07    20 14 49.5 -11 17 06   0.1574  1.1676   166.1    12.0    20.4
    ...
    2013 08 13    20 19 33.7 -11 37 12   0.1626  1.1693   162.4    15.1    20.6
    ...
    2013 08 21    20 27 44.3 -12 07 20   0.1734  1.1736   157.4    19.4    20.9
    ...
    2013 09 05    20 48 28.5 -12 50 45   0.2054  1.1879   148.3    26.5    21.5
    
    A. U. Tomatic                (C) Copyright 2013 MPC           M.P.E.C. 2013-P38
    

    Read MPEC 2013-P37 Read MPEC 2013-P39


    MPEC number:

    Enter an MPEC number in one of the following forms:

    • 1997-B01 (the full form)
    • J97B01 (the packed version of the full form)
    • B01 (the abbreviated form)